Location: *
(43.0167°S, 179.9000°E)
Time: 19:16:42
(UTC+00:00)

Cosmos 1263 - Pass Details

Date: 12 August 2024
Orbit: 382 x 1262 km, 82.9° (Epoch: 11 September)

Event Time Altitude Azimuth Distance (km) Brightness Sun altitude
Rises 17:15:18 0° 189° (S) 2,747 8.3 -19.0°
Reaches altitude 10° 17:17:40 10° 189° (S) 1,729 7.2 -18.6°
Maximum altitude 17:21:20 81° 274° (W) 455 4.2 -17.9°
Drops below altitude 10° 17:24:27 10° 3° (N) 1,465 7.1 -17.4°
Sets 17:26:18 0° 4° (N) 2,280 8.1 -17.0°
